Showing default

NETSAT-3, 46505

Orbit data source: Space-Track

NETSAT-3, 46505 is a payload satellite owned by ZfT (DE) in SSO that was launched on Mon, 28 Sep 2020 UTC via a SOYUZ-2-1B launch vehicle from the Plesetsk Missile And Space Complex (PKMTR). Payload-class satellites include a variety of spacecraft equipped with specific instruments for various scientific and technological missions. These include communications satellites like Starlink; space stations such as the ISS; scientific satellites like the Hubble; Earth observation satellites from companies like Planet Labs, Umbra, and HawkEye 360; GPS; miniature CubeSats for education and research; and military/defense satellites.

Loading next visibility...
Identifier
46505, 2020-068V
Orbit
SSO
Country
Flag of DEDE / GER
Related business
Manufacturer
ZfT
Mission
Operational Commercial Technology
Bus & Motor
CUBESAT 3U, Unknown motor
Mass
4 kg wet, 4 kg dry
Launch date (UTC)
2020-09-28 (6 years ago)
Launch vehicle
SOYUZ-2-1B
Launch site
Plesetsk Missile And Space Complex (PKMTR)
Object type
Payload
Rocket body
Debris
Shape & HBR
Box, Unknown HBR
Radar Cross Section
0.035 m², Small (<0.1 m²)

Expand to show TLE details & history
Last TLE update: 7 hours ago

TLE from 7 hours ago
0 NETSAT-3
1 46505U 20068V   26124.58497874  .00018427  00000-0  44536-3 0  9990
2 46505  97.8669 127.6477 0007232 124.5790 235.6138 15.41195572308967
Epoch: 2026-05-04T14:02Z
TLE epoch observation values (Epoch: 2026-05-04T14:02:22.163Z)
Latitude
-0.00005°
Longitude
54.58329°
Altitude
448.474 km
Speed
7.642 km/s
True Right ascension
08h 30m 35s
True Declination
0° 00' 00"
Sunlit
Object was in daylight at epoch
Visualization orbit readout
Latitude
Unknown
Longitude
Unknown
Altitude
Unknown
Speed
Unknown
Apparent Right ascension
Unknown
Apparent Declination
Unknown
Sunlit
N/A
Visualization observer readout
Local Sidereal Time
05:05:15
Azimuth
Unknown
Elevation
Unknown
Doppler factor
Unknown
Orbital elements
Apogee altitude
444.468 km
Perigee altitude
434.607 km
Semi-major axis
6,817.675 km
Eccentricity
0.00072
Inclination
97.8669°
RAAN
127.6477°
Arg. of periapsis
124.579°
True anomaly
235.54544°
Mean anomaly
235.6138°
Eccentric anomaly
235.57962°
Mean motion
3.85557 °/min
Orbital period
93.37 mins
BSTAR
0.00044536
Loading maneuver chart data...
Computing Atmospheric mass density...
Loading historical data...
Loading historical data...
Loading historical data...
Loading historical data...
Loading historical data...
Loading historical data...
Loading historical data...

Documentation

Showing up to 5 results
|